User: anonymous   Login
Location: Ecklingerode
(51.5036°N, 10.3122°E)
Time: 23:47:34
(UTC+00:00)
Language:

Cosmos 2219 - Orbit

View from above orbital plane
View from above orbital plane
View from above satellite
View from above satellite

Ground track
Ground track

The orbit data is extracted from the following two-line orbital elements,

1 22219U 92076A   21015.63906935 -.00000033  00000-0  72281-5 0  9992
2 22219  71.0624 344.4544 0018653 198.6740 161.3700 14.13660086453122
Epoch (UTC): 15 January 2021 15:20:15
Eccentricity: 0.0018653
inclination: 71.0624°
perigee height: 833 km
apogee height: 860 km
right ascension of ascending node: 344.4544°
argument of perigee: 198.6740°
revolutions per day: 14.13660086
mean anomaly at epoch: 161.3700°
orbit number at epoch: 45312

The dashed part of the orbit path shows where the satellite is in the earth's shadow,  

DLR